ZKJMC NZAR-NZSD

Flight info

Callsign ZKJMC
Flight time 1h 36m
Altitude 2500
Route PORT WAIKATO RAGLAN URUNUI
Aircraft C172/L-V/N

Departure

Time 2026-04-18 21:48
Airport Ardmore Airport (NZAR)

Arrival

Time 2026-04-18 23:24
Airport Stratford Airport (NZSD)
Time Latitude Longitude Altitude Speed Heading
2026-04-18 21:28 -37.03390 174.97272 109 ft 0 kts 322°
2026-04-18 21:39 -37.03389 174.97270 109 ft 1 kts 323°
2026-04-18 21:39 -37.03373 174.97275 109 ft 3 kts 39°
2026-04-18 21:39 -37.03350 174.97298 109 ft 5 kts 39°
2026-04-18 21:40 -37.03323 174.97322 109 ft 5 kts 33°
2026-04-18 21:40 -37.03301 174.97311 109 ft 3 kts 304°
2026-04-18 21:40 -37.03296 174.97281 109 ft 5 kts 227°
2026-04-18 21:40 -37.03326 174.97244 109 ft 7 kts 225°
2026-04-18 21:41 -37.03359 174.97201 109 ft 7 kts 225°
2026-04-18 21:41 -37.03400 174.97150 109 ft 8 kts 226°
2026-04-18 21:41 -37.03442 174.97096 109 ft 8 kts 221°
2026-04-18 21:41 -37.03473 174.97058 109 ft 5 kts 229°
2026-04-18 21:42 -37.03501 174.97021 109 ft 5 kts 226°
2026-04-18 21:42 -37.03531 174.96986 109 ft 4 kts 216°
2026-04-18 21:42 -37.03547 174.96962 109 ft 2 kts 267°
2026-04-18 21:42 -37.03534 174.96954 109 ft 2 kts 41°
2026-04-18 21:43 -37.03523 174.96970 109 ft 0 kts 46°
2026-04-18 21:45 -37.03539 174.96964 109 ft 4 kts 201°
2026-04-18 21:45 -37.03555 174.96950 109 ft 3 kts 252°
2026-04-18 21:46 -37.03543 174.96925 109 ft 4 kts 315°
2026-04-18 21:46 -37.03518 174.96902 109 ft 3 kts
2026-04-18 21:46 -37.03511 174.96907 109 ft 0 kts 46°
2026-04-18 21:47 -37.03487 174.96941 109 ft 25 kts 44°
2026-04-18 21:47 -37.03242 174.97258 143 ft 67 kts 44°
2026-04-18 21:47 -37.02903 174.97699 321 ft 72 kts 41°
2026-04-18 21:47 -37.02564 174.98183 526 ft 74 kts 45°
2026-04-18 21:48 -37.02243 174.98709 717 ft 78 kts 63°
2026-04-18 21:48 -37.02323 174.99409 892 ft 89 kts 116°
2026-04-18 21:48 -37.02751 174.99994 1047 ft 95 kts 139°
2026-04-18 21:48 -37.03404 175.00021 1076 ft 107 kts 223°
2026-04-18 21:49 -37.03931 174.99327 1105 ft 111 kts 231°
2026-04-18 21:49 -37.04480 174.98634 1191 ft 110 kts 230°
2026-04-18 21:49 -37.05010 174.97945 1210 ft 114 kts 231°
2026-04-18 21:49 -37.05568 174.97205 1200 ft 117 kts 231°
2026-04-18 21:50 -37.06134 174.96458 1173 ft 118 kts 232°
2026-04-18 21:50 -37.06685 174.95688 1166 ft 116 kts 232°
2026-04-18 21:50 -37.07336 174.95075 1150 ft 119 kts 220°
2026-04-18 21:50 -37.07999 174.94444 1132 ft 119 kts 220°
2026-04-18 21:51 -37.08656 174.93858 1154 ft 117 kts 221°
2026-04-18 21:51 -37.09322 174.93219 1106 ft 119 kts 222°
2026-04-18 21:51 -37.09980 174.92612 1137 ft 117 kts 220°
2026-04-18 21:51 -37.10633 174.91995 1143 ft 117 kts 221°
2026-04-18 21:52 -37.11270 174.91362 1131 ft 117 kts 222°
2026-04-18 21:52 -37.11915 174.90703 1089 ft 121 kts 224°
2026-04-18 21:52 -37.12552 174.90034 1130 ft 116 kts 223°
2026-04-18 21:52 -37.13208 174.89427 1093 ft 120 kts 219°
2026-04-18 21:53 -37.13863 174.88747 1076 ft 119 kts 227°
2026-04-18 21:53 -37.14477 174.88086 1114 ft 117 kts 221°
2026-04-18 21:53 -37.15123 174.87456 1130 ft 117 kts 223°
2026-04-18 21:53 -37.15770 174.86800 1093 ft 119 kts 221°
2026-04-18 21:54 -37.16402 174.86204 1178 ft 112 kts 221°
2026-04-18 21:54 -37.17051 174.85593 1159 ft 116 kts 221°
2026-04-18 21:54 -37.17701 174.85014 1209 ft 114 kts 216°
2026-04-18 21:54 -37.18366 174.84457 1235 ft 114 kts 219°
2026-04-18 21:55 -37.19041 174.83899 1204 ft 119 kts 220°
2026-04-18 21:55 -37.19687 174.83273 1261 ft 114 kts 221°
2026-04-18 21:55 -37.20326 174.82693 1297 ft 114 kts 220°
2026-04-18 21:55 -37.20968 174.82101 1321 ft 114 kts 221°
2026-04-18 21:56 -37.21631 174.81555 1385 ft 112 kts 217°
2026-04-18 21:56 -37.22108 174.81149 1358 ft 117 kts 220°
2026-04-18 21:56 -37.22772 174.80577 1429 ft 112 kts 218°
2026-04-18 21:56 -37.23466 174.80090 1450 ft 116 kts 210°
2026-04-18 21:57 -37.24218 174.79706 1445 ft 118 kts 205°
2026-04-18 21:57 -37.24990 174.79335 1448 ft 118 kts 204°
2026-04-18 21:57 -37.25775 174.79001 1447 ft 119 kts 202°
2026-04-18 21:57 -37.26563 174.78664 1474 ft 117 kts 204°
2026-04-18 21:58 -37.27322 174.78308 1326 ft 113 kts 205°
2026-04-18 21:58 -37.28054 174.78000 1283 ft 115 kts 200°
2026-04-18 21:58 -37.28838 174.77647 1283 ft 119 kts 204°
2026-04-18 21:58 -37.29599 174.77264 1362 ft 117 kts 205°
2026-04-18 21:59 -37.30360 174.76894 1365 ft 119 kts 204°
2026-04-18 21:59 -37.31146 174.76512 1358 ft 120 kts 204°
2026-04-18 21:59 -37.31929 174.76155 1348 ft 121 kts 202°
2026-04-18 21:59 -37.32724 174.75778 1332 ft 121 kts 204°
2026-04-18 22:00 -37.33508 174.75354 1289 ft 124 kts 210°
2026-04-18 22:00 -37.34258 174.74834 1259 ft 123 kts 215°
2026-04-18 22:00 -37.34992 174.74265 1218 ft 123 kts 217°
2026-04-18 22:00 -37.35707 174.73680 1165 ft 123 kts 218°
2026-04-18 22:01 -37.36409 174.73056 1069 ft 124 kts 220°
2026-04-18 22:01 -37.37100 174.72437 1037 ft 120 kts 220°
2026-04-18 22:01 -37.37784 174.71785 934 ft 123 kts 221°
2026-04-18 22:01 -37.38461 174.71144 872 ft 122 kts 221°
2026-04-18 22:02 -37.39129 174.70489 870 ft 118 kts 221°
2026-04-18 22:02 -37.39785 174.69852 796 ft 123 kts 219°
2026-04-18 22:02 -37.40571 174.69496 933 ft 120 kts 191°
2026-04-18 22:02 -37.41419 174.69475 989 ft 124 kts 173°
2026-04-18 22:03 -37.42270 174.69760 1050 ft 125 kts 158°
2026-04-18 22:03 -37.43111 174.69983 1153 ft 123 kts 171°
2026-04-18 22:03 -37.43973 174.70172 1194 ft 127 kts 169°
2026-04-18 22:03 -37.44830 174.70361 1235 ft 124 kts 172°
2026-04-18 22:04 -37.45691 174.70615 1191 ft 127 kts 162°
2026-04-18 22:04 -37.46499 174.70985 1269 ft 120 kts 159°
2026-04-18 22:04 -37.47293 174.71382 1279 ft 121 kts 156°
2026-04-18 22:04 -37.48065 174.71854 1263 ft 124 kts 151°
2026-04-18 22:05 -37.48812 174.72380 1321 ft 121 kts 149°
2026-04-18 22:05 -37.49520 174.72937 1342 ft 121 kts 146°
2026-04-18 22:05 -37.50306 174.73366 1336 ft 123 kts 162°
2026-04-18 22:05 -37.51122 174.73700 1379 ft 121 kts 160°
2026-04-18 22:06 -37.51921 174.74017 1406 ft 122 kts 164°
2026-04-18 22:06 -37.52749 174.74295 1447 ft 121 kts 164°
2026-04-18 22:06 -37.53556 174.74612 1478 ft 121 kts 161°
2026-04-18 22:06 -37.54371 174.74922 1490 ft 121 kts 165°
2026-04-18 22:07 -37.55195 174.75148 1499 ft 122 kts 172°
2026-04-18 22:07 -37.56043 174.75346 1508 ft 122 kts 168°
2026-04-18 22:07 -37.56863 174.75624 1517 ft 123 kts 161°
2026-04-18 22:07 -37.57692 174.75987 1467 ft 127 kts 161°
2026-04-18 22:08 -37.58532 174.76341 1475 ft 124 kts 162°
2026-04-18 22:08 -37.59358 174.76639 1460 ft 125 kts 167°
2026-04-18 22:08 -37.60223 174.76897 1440 ft 125 kts 166°
2026-04-18 22:08 -37.61041 174.77191 1479 ft 121 kts 164°
2026-04-18 22:09 -37.61856 174.77496 1523 ft 119 kts 163°
2026-04-18 22:09 -37.62642 174.77834 1579 ft 118 kts 158°
2026-04-18 22:09 -37.63236 174.78122 1596 ft 119 kts 159°
2026-04-18 22:09 -37.64035 174.78490 1564 ft 124 kts 159°
2026-04-18 22:10 -37.64819 174.78914 1607 ft 120 kts 160°
2026-04-18 22:10 -37.65628 174.79182 1636 ft 119 kts 168°
2026-04-18 22:10 -37.66433 174.79422 1668 ft 118 kts 167°
2026-04-18 22:10 -37.67237 174.79665 1653 ft 118 kts 168°
2026-04-18 22:11 -37.68051 174.79872 1614 ft 120 kts 168°
2026-04-18 22:11 -37.68887 174.80107 1546 ft 123 kts 169°
2026-04-18 22:11 -37.69706 174.80347 1545 ft 115 kts 167°
2026-04-18 22:11 -37.70413 174.80592 1529 ft 102 kts 163°
2026-04-18 22:12 -37.71785 174.81023 1600 ft 101 kts 164°
2026-04-18 22:12 -37.72471 174.81091 1635 ft 101 kts 218°
2026-04-18 22:12 -37.72648 174.80374 1692 ft 90 kts 298°
2026-04-18 22:13 -37.72163 174.80035 1475 ft 85 kts 11°
2026-04-18 22:13 -37.71795 174.80554 1298 ft 85 kts 77°
2026-04-18 22:13 -37.72055 174.81220 1106 ft 91 kts 144°
2026-04-18 22:13 -37.72672 174.81482 956 ft 101 kts 167°
2026-04-18 22:14 -37.73396 174.81659 1000 ft 103 kts 171°
2026-04-18 22:14 -37.74074 174.81807 1102 ft 97 kts 169°
2026-04-18 22:14 -37.74755 174.81957 1119 ft 102 kts 170°
2026-04-18 22:14 -37.75459 174.82094 1152 ft 103 kts 172°
2026-04-18 22:15 -37.76167 174.82243 1208 ft 101 kts 169°
2026-04-18 22:15 -37.76885 174.82369 1166 ft 101 kts 173°
2026-04-18 22:15 -37.77566 174.82457 1072 ft 96 kts 173°
2026-04-18 22:15 -37.78171 174.82555 1049 ft 81 kts 173°
2026-04-18 22:16 -37.78722 174.82680 1024 ft 80 kts 160°
2026-04-18 22:16 -37.79269 174.82901 976 ft 82 kts 160°
2026-04-18 22:16 -37.79792 174.83136 874 ft 75 kts 158°
2026-04-18 22:16 -37.80235 174.83379 768 ft 66 kts 154°
2026-04-18 22:17 -37.80633 174.83670 662 ft 64 kts 141°
2026-04-18 22:17 -37.80960 174.84032 529 ft 63 kts 99°
2026-04-18 22:17 -37.80889 174.84540 363 ft 56 kts 69°
2026-04-18 22:17 -37.80811 174.85017 203 ft 57 kts 65°
2026-04-18 22:18 -37.80666 174.85478 71 ft 56 kts 62°
2026-04-18 22:18 -37.80529 174.85869 21 ft 37 kts 68°
2026-04-18 22:18 -37.80434 174.86095 12 ft 17 kts 65°
2026-04-18 22:18 -37.80402 174.86182 10 ft 5 kts 52°
2026-04-18 22:19 -37.80381 174.86171 10 ft 0 kts 210°
2026-04-18 22:19 -37.80383 174.86169 10 ft 0 kts 181°
2026-04-18 22:30 -37.80397 174.86202 11 ft 6 kts 128°
2026-04-18 22:31 -37.80413 174.86198 11 ft 0 kts 243°
2026-04-18 22:31 -37.80442 174.86124 12 ft 33 kts 242°
2026-04-18 22:31 -37.80604 174.85698 87 ft 64 kts 246°
2026-04-18 22:32 -37.80768 174.85175 290 ft 65 kts 261°
2026-04-18 22:32 -37.80850 174.84601 472 ft 69 kts 269°
2026-04-18 22:32 -37.80888 174.84015 684 ft 68 kts 276°
2026-04-18 22:32 -37.80953 174.83382 848 ft 81 kts 257°
2026-04-18 22:33 -37.81128 174.82649 979 ft 92 kts 252°
2026-04-18 22:33 -37.81357 174.81874 1143 ft 96 kts 253°
2026-04-18 22:33 -37.81653 174.81122 1321 ft 97 kts 245°
2026-04-18 22:33 -37.81914 174.80322 1505 ft 96 kts 254°
2026-04-18 22:34 -37.82114 174.79512 1672 ft 96 kts 259°
2026-04-18 22:34 -37.82360 174.78735 1858 ft 99 kts 240°
2026-04-18 22:34 -37.82786 174.78032 2043 ft 98 kts 238°
2026-04-18 22:34 -37.83260 174.77425 2267 ft 96 kts 218°
2026-04-18 22:35 -37.83876 174.77095 2448 ft 99 kts 201°
2026-04-18 22:35 -37.84568 174.76811 2554 ft 109 kts 195°
2026-04-18 22:35 -37.85384 174.76602 2491 ft 127 kts 190°
2026-04-18 22:35 -37.86291 174.76454 2379 ft 132 kts 187°
2026-04-18 22:36 -37.87206 174.76327 2282 ft 132 kts 186°
2026-04-18 22:36 -37.88109 174.76242 2234 ft 129 kts 184°
2026-04-18 22:36 -37.89004 174.76231 2173 ft 129 kts 173°
2026-04-18 22:36 -37.89891 174.76460 2134 ft 125 kts 165°
2026-04-18 22:37 -37.90727 174.76718 2120 ft 125 kts 165°
2026-04-18 22:37 -37.91575 174.76953 2142 ft 121 kts 168°
2026-04-18 22:37 -37.92414 174.77130 2097 ft 125 kts 171°
2026-04-18 22:37 -37.93303 174.77331 1997 ft 130 kts 168°
2026-04-18 22:38 -37.94190 174.77545 1970 ft 128 kts 169°
2026-04-18 22:38 -37.95072 174.77695 1923 ft 128 kts 175°
2026-04-18 22:38 -37.95965 174.77841 1852 ft 130 kts 169°
2026-04-18 22:38 -37.96813 174.78001 2057 ft 119 kts 171°
2026-04-18 22:39 -37.97632 174.78148 2194 ft 117 kts 169°
2026-04-18 22:39 -37.98445 174.78308 2292 ft 120 kts 171°
2026-04-18 22:39 -37.99305 174.78418 2283 ft 129 kts 178°
2026-04-18 22:39 -38.00177 174.78433 2417 ft 122 kts 179°
2026-04-18 22:40 -38.01038 174.78471 2464 ft 126 kts 176°
2026-04-18 22:40 -38.01931 174.78488 2503 ft 128 kts 185°
2026-04-18 22:40 -38.02804 174.78340 2592 ft 125 kts 191°
2026-04-18 22:40 -38.03664 174.78160 2638 ft 125 kts 189°
2026-04-18 22:41 -38.04540 174.77983 2631 ft 127 kts 191°
2026-04-18 22:41 -38.05414 174.77808 2644 ft 127 kts 190°
2026-04-18 22:41 -38.06289 174.77634 2651 ft 127 kts 191°
2026-04-18 22:41 -38.07147 174.77383 2669 ft 125 kts 198°
2026-04-18 22:42 -38.08001 174.77097 2633 ft 128 kts 195°
2026-04-18 22:42 -38.08861 174.76810 2627 ft 126 kts 198°
2026-04-18 22:42 -38.09698 174.76454 2604 ft 126 kts 204°
2026-04-18 22:42 -38.10516 174.76024 2577 ft 126 kts 205°
2026-04-18 22:43 -38.11326 174.75578 2577 ft 125 kts 207°
2026-04-18 22:43 -38.12130 174.75111 2534 ft 128 kts 207°
2026-04-18 22:43 -38.12949 174.74631 2497 ft 128 kts 208°
2026-04-18 22:43 -38.13733 174.74109 2448 ft 128 kts 212°
2026-04-18 22:44 -38.14529 174.73590 2397 ft 129 kts 205°
2026-04-18 22:44 -38.15390 174.73261 2424 ft 125 kts 194°
2026-04-18 22:44 -38.16242 174.72966 2337 ft 131 kts 197°
2026-04-18 22:44 -38.17128 174.72691 2303 ft 129 kts 193°
2026-04-18 22:45 -38.18007 174.72461 2274 ft 129 kts 194°
2026-04-18 22:45 -38.18871 174.72115 2272 ft 126 kts 202°
2026-04-18 22:45 -38.19689 174.71706 2280 ft 126 kts 204°
2026-04-18 22:45 -38.20494 174.71225 2220 ft 129 kts 208°
2026-04-18 22:46 -38.21321 174.70811 2219 ft 127 kts 197°
2026-04-18 22:46 -38.22195 174.70564 2207 ft 127 kts 191°
2026-04-18 22:46 -38.23056 174.70314 2193 ft 127 kts 194°
2026-04-18 22:46 -38.23920 174.70073 2201 ft 125 kts 193°
2026-04-18 22:47 -38.24774 174.69893 2191 ft 127 kts 188°
2026-04-18 22:47 -38.25664 174.69743 2162 ft 127 kts 188°
2026-04-18 22:47 -38.26545 174.69579 2150 ft 128 kts 191°
2026-04-18 22:47 -38.27418 174.69424 2142 ft 127 kts 185°
2026-04-18 22:48 -38.28304 174.69321 2117 ft 128 kts 186°
2026-04-18 22:48 -38.29178 174.69159 2119 ft 126 kts 189°
2026-04-18 22:48 -38.30064 174.68979 2098 ft 127 kts 189°
2026-04-18 22:48 -38.30920 174.68806 2145 ft 123 kts 189°
2026-04-18 22:49 -38.31744 174.68657 2261 ft 116 kts 187°
2026-04-18 22:49 -38.32548 174.68526 2327 ft 117 kts 188°
2026-04-18 22:49 -38.33355 174.68373 2360 ft 119 kts 188°
2026-04-18 22:49 -38.34175 174.68204 2434 ft 117 kts 190°
2026-04-18 22:50 -38.34998 174.68021 2443 ft 122 kts 191°
2026-04-18 22:50 -38.35843 174.67815 2447 ft 124 kts 192°
2026-04-18 22:50 -38.36695 174.67580 2449 ft 127 kts 194°
2026-04-18 22:50 -38.37555 174.67316 2418 ft 126 kts 195°
2026-04-18 22:51 -38.38396 174.67044 2419 ft 124 kts 195°
2026-04-18 22:51 -38.39239 174.66739 2432 ft 124 kts 198°
2026-04-18 22:51 -38.40059 174.66426 2425 ft 124 kts 199°
2026-04-18 22:51 -38.40899 174.66103 2412 ft 127 kts 197°
2026-04-18 22:52 -38.41761 174.65817 2411 ft 126 kts 197°
2026-04-18 22:52 -38.42595 174.65491 2420 ft 125 kts 199°
2026-04-18 22:52 -38.43425 174.65117 2409 ft 126 kts 199°
2026-04-18 22:52 -38.44255 174.64804 2417 ft 125 kts 197°
2026-04-18 22:53 -38.45098 174.64490 2382 ft 127 kts 199°
2026-04-18 22:53 -38.45922 174.64098 2389 ft 125 kts 200°
2026-04-18 22:53 -38.46758 174.63757 2390 ft 126 kts 200°
2026-04-18 22:53 -38.47598 174.63419 2390 ft 126 kts 196°
2026-04-18 22:54 -38.48465 174.63129 2379 ft 127 kts 194°
2026-04-18 22:54 -38.49316 174.62819 2385 ft 126 kts 198°
2026-04-18 22:54 -38.50164 174.62570 2395 ft 126 kts 189°
2026-04-18 22:54 -38.51048 174.62411 2362 ft 128 kts 188°
2026-04-18 22:55 -38.51937 174.62268 2361 ft 128 kts 185°
2026-04-18 22:55 -38.52816 174.62137 2383 ft 125 kts 187°
2026-04-18 22:55 -38.53700 174.62054 2359 ft 127 kts 180°
2026-04-18 22:55 -38.54591 174.62033 2366 ft 126 kts 179°
2026-04-18 22:56 -38.55472 174.61980 2350 ft 127 kts 184°
2026-04-18 22:56 -38.56356 174.61911 2364 ft 126 kts 181°
2026-04-18 22:56 -38.57246 174.61852 2339 ft 128 kts 182°
2026-04-18 22:56 -38.58127 174.61804 2357 ft 126 kts 181°
2026-04-18 22:57 -38.59006 174.61772 2347 ft 128 kts 179°
2026-04-18 22:57 -38.59901 174.61742 2347 ft 127 kts 182°
2026-04-18 22:57 -38.60778 174.61600 2342 ft 128 kts 191°
2026-04-18 22:57 -38.61653 174.61371 2362 ft 125 kts 190°
2026-04-18 22:58 -38.62522 174.61175 2345 ft 128 kts 189°
2026-04-18 22:58 -38.63402 174.60983 2351 ft 127 kts 189°
2026-04-18 22:58 -38.64274 174.60815 2355 ft 127 kts 187°
2026-04-18 22:58 -38.65160 174.60673 2351 ft 127 kts 186°
2026-04-18 22:59 -38.66046 174.60558 2364 ft 126 kts 183°
2026-04-18 22:59 -38.66927 174.60507 2365 ft 127 kts 180°
2026-04-18 22:59 -38.67806 174.60524 2355 ft 127 kts 176°
2026-04-18 22:59 -38.68694 174.60585 2354 ft 127 kts 173°
2026-04-18 23:00 -38.69579 174.60687 2357 ft 127 kts 174°
2026-04-18 23:00 -38.70461 174.60736 2346 ft 128 kts 178°
2026-04-18 23:00 -38.71344 174.60744 2373 ft 125 kts 177°
2026-04-18 23:00 -38.72223 174.60753 2362 ft 127 kts 180°
2026-04-18 23:01 -38.73106 174.60672 2367 ft 127 kts 185°
2026-04-18 23:01 -38.73972 174.60516 2432 ft 123 kts 190°
2026-04-18 23:01 -38.74812 174.60248 2436 ft 125 kts 195°
2026-04-18 23:01 -38.75633 174.59930 2461 ft 124 kts 198°
2026-04-18 23:02 -38.76471 174.59584 2451 ft 127 kts 199°
2026-04-18 23:02 -38.77296 174.59222 2491 ft 124 kts 198°
2026-04-18 23:02 -38.78130 174.58903 2506 ft 125 kts 195°
2026-04-18 23:02 -38.78981 174.58618 2516 ft 125 kts 194°
2026-04-18 23:03 -38.79824 174.58333 2537 ft 125 kts 196°
2026-04-18 23:03 -38.80644 174.57971 2563 ft 124 kts 202°
2026-04-18 23:03 -38.81448 174.57530 2559 ft 126 kts 203°
2026-04-18 23:03 -38.82247 174.57101 2587 ft 124 kts 205°
2026-04-18 23:04 -38.83028 174.56589 2595 ft 125 kts 210°
2026-04-18 23:04 -38.83800 174.56047 2609 ft 125 kts 210°
2026-04-18 23:04 -38.84560 174.55522 2644 ft 124 kts 211°
2026-04-18 23:04 -38.85303 174.54939 2646 ft 125 kts 215°
2026-04-18 23:05 -38.86025 174.54327 2672 ft 124 kts 217°
2026-04-18 23:05 -38.86717 174.53662 2672 ft 125 kts 221°
2026-04-18 23:05 -38.87395 174.52953 2695 ft 124 kts 223°
2026-04-18 23:05 -38.88037 174.52203 2719 ft 123 kts 228°
2026-04-18 23:06 -38.88645 174.51428 2742 ft 123 kts 226°
2026-04-18 23:06 -38.89297 174.50703 2751 ft 125 kts 221°
2026-04-18 23:06 -38.89980 174.50006 2771 ft 124 kts 221°
2026-04-18 23:06 -38.90666 174.49329 2794 ft 124 kts 220°
2026-04-18 23:07 -38.91357 174.48650 2792 ft 125 kts 219°
2026-04-18 23:07 -38.92028 174.47957 2813 ft 125 kts 223°
2026-04-18 23:07 -38.92641 174.47165 2821 ft 124 kts 231°
2026-04-18 23:07 -38.93240 174.46368 2839 ft 124 kts 227°
2026-04-18 23:08 -38.93896 174.45621 2841 ft 125 kts 223°
2026-04-18 23:08 -38.94553 174.44881 2803 ft 129 kts 225°
2026-04-18 23:08 -38.95197 174.44104 2815 ft 126 kts 227°
2026-04-18 23:08 -38.95833 174.43274 2714 ft 132 kts 230°
2026-04-18 23:09 -38.96460 174.42424 2712 ft 128 kts 231°
2026-04-18 23:09 -38.97069 174.41557 2562 ft 136 kts 232°
2026-04-18 23:09 -38.97674 174.40619 2503 ft 133 kts 235°
2026-04-18 23:09 -38.98213 174.39682 2451 ft 132 kts 237°
2026-04-18 23:10 -38.98870 174.38872 2407 ft 133 kts 214°
2026-04-18 23:10 -38.99688 174.38264 2329 ft 136 kts 213°
2026-04-18 23:10 -39.00470 174.37570 2270 ft 134 kts 215°
2026-04-18 23:10 -39.01263 174.36949 2236 ft 133 kts 209°
2026-04-18 23:11 -39.02097 174.36446 2219 ft 131 kts 200°
2026-04-18 23:11 -39.02946 174.36014 2230 ft 129 kts 201°
2026-04-18 23:11 -39.03777 174.35597 2228 ft 129 kts 201°
2026-04-18 23:11 -39.04623 174.35173 2229 ft 129 kts 202°
2026-04-18 23:12 -39.05460 174.34747 2235 ft 128 kts 203°
2026-04-18 23:12 -39.06284 174.34331 2225 ft 128 kts 203°
2026-04-18 23:12 -39.07125 174.33905 2221 ft 129 kts 202°
2026-04-18 23:12 -39.07955 174.33487 2214 ft 128 kts 203°
2026-04-18 23:13 -39.08791 174.33063 2224 ft 128 kts 202°
2026-04-18 23:13 -39.09601 174.32629 2243 ft 126 kts 204°
2026-04-18 23:13 -39.10451 174.32352 2257 ft 126 kts 193°
2026-04-18 23:13 -39.11318 174.32108 2277 ft 126 kts 190°
2026-04-18 23:14 -39.12186 174.31943 2298 ft 126 kts 187°
2026-04-18 23:14 -39.13048 174.31757 2327 ft 125 kts 189°
2026-04-18 23:14 -39.13923 174.31628 2342 ft 126 kts 182°
2026-04-18 23:14 -39.14792 174.31547 2358 ft 126 kts 184°
2026-04-18 23:15 -39.15668 174.31480 2378 ft 126 kts 180°
2026-04-18 23:15 -39.16546 174.31563 2408 ft 124 kts 169°
2026-04-18 23:15 -39.17405 174.31747 2401 ft 126 kts 168°
2026-04-18 23:15 -39.18260 174.31923 2420 ft 125 kts 168°
2026-04-18 23:16 -39.19096 174.32115 2411 ft 127 kts 167°
2026-04-18 23:16 -39.19716 174.32271 2394 ft 128 kts 168°
2026-04-18 23:16 -39.20612 174.32461 2323 ft 133 kts 168°
2026-04-18 23:16 -39.21532 174.32632 2325 ft 129 kts 169°
2026-04-18 23:17 -39.22425 174.32782 2294 ft 131 kts 174°
2026-04-18 23:17 -39.23339 174.32753 2262 ft 131 kts 187°
2026-04-18 23:17 -39.24228 174.32559 2282 ft 128 kts 190°
2026-04-18 23:17 -39.25103 174.32581 2323 ft 123 kts 170°
2026-04-18 23:18 -39.25946 174.32654 2407 ft 121 kts 180°
2026-04-18 23:18 -39.26804 174.32471 2448 ft 127 kts 197°
2026-04-18 23:18 -39.27657 174.32082 2448 ft 133 kts 201°
2026-04-18 23:18 -39.28573 174.31834 2370 ft 138 kts 178°
2026-04-18 23:19 -39.29478 174.31819 2312 ft 124 kts 180°
2026-04-18 23:19 -39.30327 174.31778 2193 ft 120 kts 182°
2026-04-18 23:19 -39.31162 174.31740 2068 ft 121 kts 183°
2026-04-18 23:19 -39.31994 174.31627 2006 ft 118 kts 187°
2026-04-18 23:20 -39.32768 174.31386 1997 ft 104 kts 217°
2026-04-18 23:20 -39.33032 174.30656 1938 ft 88 kts 286°
2026-04-18 23:20 -39.32778 174.29930 1895 ft 92 kts 321°
2026-04-18 23:20 -39.32227 174.29581 1886 ft 94 kts 358°
2026-04-18 23:21 -39.31560 174.29683 1888 ft 93 kts 14°
2026-04-18 23:21 -39.30947 174.29913 1926 ft 91 kts 18°
2026-04-18 23:21 -39.30603 174.30475 1886 ft 83 kts 86°
2026-04-18 23:21 -39.30813 174.31230 1715 ft 94 kts 109°
2026-04-18 23:22 -39.31027 174.31999 1609 ft 88 kts 107°
2026-04-18 23:22 -39.31307 174.32687 1528 ft 86 kts 114°
2026-04-18 23:22 -39.31661 174.33284 1509 ft 80 kts 137°
2026-04-18 23:23 -39.32379 174.32732 1298 ft 59 kts 296°
2026-04-18 23:23 -39.32253 174.32242 1176 ft 57 kts 305°
2026-04-18 23:23 -39.32081 174.31787 1071 ft 57 kts 308°
2026-04-18 23:23 -39.31918 174.31306 937 ft 58 kts 296°
2026-04-18 23:24 -39.31810 174.30933 932 ft 31 kts 294°
2026-04-18 23:24 -39.31753 174.30753 937 ft 12 kts 289°
2026-04-18 23:24 -39.31775 174.30708 938 ft 5 kts 142°
2026-04-18 23:24 -39.31795 174.30747 936 ft 4 kts 130°
2026-04-18 23:25 -39.31827 174.30754 936 ft 5 kts 210°
2026-04-18 23:25 -39.31838 174.30733 937 ft 1 kts 246°
2026-04-18 23:25 -39.31844 174.30713 938 ft 3 kts 281°
2026-04-18 23:25 -39.31833 174.30682 938 ft 2 kts 264°
2026-04-18 23:26 -39.31849 174.30658 939 ft 1 kts 330°
2026-04-18 23:26 -39.31844 174.30656 939 ft 0 kts